Find Starlink 33761

NORAD ID: 63455 Int'l Des: 2025-069 Owner: SPXS Country: US Constellation: starlink operational
LEOCIRCULAR

リアルタイム位置

3D地球を読み込み中...

Starlink 33761について

説明を読み込み中...

次回通過

Passes for default location (London). Set your location on the main map for personalized predictions.

高度履歴

Loading altitude history...

軌道要素

1 63455U 25069Y 26104.06837788 .00006922 00000-0 24562-3 0 9996
2 63455 53.1594 337.9692 0000976 80.3881 279.7230 15.30199968 58825
Epoch: Apr 14, 2026 • Age: 23 hours

現在のステータス

高度 475.5 km
速度 7.63 km/s
衛星直下点 20.41°N, 69.55°W
打ち上げ日 Apr 4, 2025
運用期間 1 years
タイプ internet

技術仕様

分類 Payload
質量 575.00 kg
乾燥質量 530.00 kg
総質量 575.00 kg
長さ 0.30 m
直径 4.10 m
スパン 29.00 m
形状 Box + pan
製造者 SPXS
バスタイプ Starlink V2MO
フェーズステータス In Orbit
所有者/国 SPXS/US

Most Searched